Temp
29 27 27 28 26 28 26 25 25 23 21 19 19 19 19 19 19 19 17 16 16 18 18 18 17 17 17 17 17 17 15 15 14 13 13 13 13 13 13 13 13 12 12 12
28 28 30 30 30 29 28 26 25 21 21 20 20 19 19 17 17 17 16 16 17 16 17 17 17 17 17 17 16 15 15 14 14 13 13 13 12 13 13 13 13 12 12 12
28 30 30 28 27 27 27 27 26 25 21 21 20 19 19 17 17 17 16 17 17 17 17 17 17 17 17 17 15 15 14 14 13 13 13 13 13 12 12 12 12 12 12 12
30 30 30 28 27 27 27 28 28 23 21 19 21 18 18 17 16 16 16 15 15 16 16 18 17 17 17 16 15 15 14 14 13 13 13 12 12 11 12 12 12 12 12 12
29 29 29 29 28 28 27 28 27 24 20 19 19 17 19 17 17 17 16 15 15 15 16 17 18 18 17 17 15 15 14 14 13 13 13 12 12 12 12 12 12 12 12 12
29 30 27 27 27 28 28 27 24 21 18 17 18 18 18 17 18 18 17 16 17 16 17 18 19 17 17 16 16 15 14 14 14 14 13 13 12 12 12 12 12 12 12 12
29 28 27 26 27 27 25 22 21 22 18 19 20 18 17 18 18 17 17 16 16 16 16 16 17 16 16 15 15 14 14 14 14 14 14 13 12 12 12 12 12 12 12 12
26 26 28 26 27 27 27 23 21 23 19 18 19 18 18 19 17 17 16 17 16 16 16 16 17 17 16 15 15 14 14 14 14 14 14 13 13 12 12 12 12 12 12 12
26 26 28 28 26 26 25 23 24 18 17 17 18 19 19 20 19 18 16 16 16 16 16 16 17 17 16 15 15 15 15 14 14 14 14 14 13 12 12 12 12 12 12 12
27 25 26 27 25 25 24 24 22 17 18 18 18 17 18 19 20 18 18 15 15 17 17 16 16 16 16 16 15 15 14 14 14 14 14 14 13 12 12 12 12 12 12 12
25 23 24 24 22 22 21 20 19 17 17 17 18 17 17 19 19 18 19 17 15 16 16 14 15 16 16 15 15 14 14 14 14 14 14 14 13 13 13 13 12 12 12 12
25 20 20 22 24 24 23 22 18 17 19 16 16 18 21 20 18 17 19 18 17 16 15 15 16 16 15 15 14 14 14 14 15 14 14 14 14 14 13 13 13 13 13 13
24 20 20 21 20 21 21 21 20 18 16 17 15 18 19 19 19 19 20 19 17 15 14 14 14 14 15 14 14 14 14 15 15 14 14 14 14 14 13 13 13 13 13 13
21 18 20 19 21 21 21 21 20 17 17 17 17 19 19 18 19 19 16 17 18 18 17 14 13 14 14 15 15 15 14 15 15 15 14 14 14 14 14 14 14 14 13 14
20 20 21 21 23 22 21 20 20 19 18 17 17 17 17 15 17 17 18 18 19 18 16 15 13 13 14 14 15 15 15 15 15 15 15 15 15 15 15 14 14 14 14 14
19 20 21 20 23 22 20 20 19 19 18 18 17 16 15 17 16 16 15 16 17 17 17 16 15 14 14 15 15 15 14 15 15 14 15 15 15 15 15 15 14 14 14 14
20 19 19 20 21 21 17 18 18 16 16 16 15 16 16 16 16 14 14 14 15 14 14 15 15 15 15 15 15 15 15 15 15 14 14 14 15 15 15 15 15 14 14 14
20 18 17 18 19 16 18 18 18 16 16 15 17 17 16 15 15 13 12 13 14 14 13 13 14 14 14 15 15 15 14 15 15 15 15 15 15 15 15 15 15 14 14 14
19 17 18 18 17 19 18 18 17 17 16 17 16 16 16 16 15 14 14 14 13 13 13 12 13 12 13 12 14 14 14 15 14 15 14 15 15 15 15 15 14 14 14 14
19 18 18 17 17 18 17 18 19 17 14 15 15 14 14 14 11 11 14 14 13 14 14 14 13 13 13 13 13 12 14 14 14 14 14 14 14 14 15 15 15 15 14 14
17 17 17 16 17 17 17 18 18 14 13 15 14 14 14 12 12 13 13 13 14 14 14 13 13 13 12 12 13 12 13 13 14 14 14 14 14 14 15 15 15 15 15 14
17 16 15 16 16 16 17 17 14 14 15 15 14 14 14 14 13 13 12 12 13 13 14 14 13 13 12 12 11 11 12 13 13 14 14 14 14 15 15 15 15 15 15 15
16 16 14 15 14 15 17 15 16 14 14 16 15 15 15 14 14 12 11 12 13 13 13 13 13 12 11 11 10 11 12 13 12 13 14 14 14 14 15 15 15 15 15 15
17 16 14 15 17 16 16 17 15 16 16 16 15 15 14 13 12 13 11 12 12 13 13 13 13 12 11 11 10 10 10 11 11 11 12 13 14 14 14 14 14 14 15 15
15 16 14 15 16 17 17 17 17 17 15 16 16 16 15 14 13 13 11 12 13 13 13 13 12 12 12 11 11 10 10 10 10 10 10 11 13 13 14 14 13 14 14 15
14 15 13 13 15 14 14 17 16 16 16 16 15 15 16 14 13 14 13 13 13 13 13 13 12 12 12 12 11 11 10 10 9 11 10 10 10 11 12 13 12 13 13 14
Height
791 814 824 809 810 809 818 828 829 835 845 852 860 862 865 862 860 857 865 870 873 874 872 871 872 870 873 873 874 873 874 874 871 868 865 863 860 857 856 853 851 849 847 843
806 818 798 792 796 804 813 825 833 847 844 855 865 868 866 866 866 861 867 869 870 873 874 872 873 872 872 873 874 874 875 872 870 867 865 862 859 856 856 852 850 849 845 842
813 804 793 799 805 812 816 815 817 827 848 854 860 872 873 871 870 868 866 863 868 870 873 872 872 873 874 873 874 873 872 870 867 866 864 860 857 856 854 851 850 847 844 841
802 792 796 804 810 809 819 796 798 833 845 872 853 890 879 873 877 874 869 870 870 871 871 872 872 873 873 874 874 871 871 867 864 863 861 859 856 856 854 853 849 846 843 841
808 803 802 807 807 801 812 795 809 822 850 862 866 882 876 876 878 876 873 872 871 871 871 871 871 871 873 871 872 868 866 864 863 862 860 859 856 857 855 852 848 845 842 840
800 787 800 803 796 797 796 803 821 834 856 887 878 881 884 879 874 868 870 869 868 868 868 868 869 870 871 870 869 868 867 865 864 862 860 858 858 857 853 850 847 844 841 839
806 805 799 801 805 798 807 831 863 861 885 886 868 881 883 869 864 866 866 867 867 865 864 864 868 869 869 869 869 868 867 864 863 861 860 859 858 855 852 849 846 843 840 837
832 842 809 807 810 814 814 829 859 863 887 892 874 890 882 863 862 860 861 862 865 866 866 867 868 868 867 867 867 867 865 864 863 861 860 858 856 853 850 848 845 842 839 837
836 838 808 808 808 811 823 838 823 866 880 890 889 878 869 859 862 863 865 863 864 865 866 863 863 863 865 867 867 866 864 864 863 861 859 857 854 851 849 846 843 841 838 836
817 840 822 818 816 819 827 822 847 864 886 896 894 893 888 871 862 863 864 867 865 861 862 862 863 863 864 864 864 864 864 862 861 859 857 855 852 849 847 845 842 839 837 835
818 835 841 829 848 850 844 849 852 863 876 892 892 897 877 869 865 864 861 860 861 861 860 860 861 861 862 864 865 864 863 861 859 857 855 854 851 849 846 844 841 839 837 835
820 846 866 858 840 833 836 841 854 875 875 887 895 893 865 866 866 864 860 858 857 856 856 859 859 859 860 862 862 862 860 858 857 855 854 852 851 848 846 843 841 839 836 834
822 856 874 867 861 847 854 849 848 860 873 886 901 893 870 867 865 861 858 857 857 859 859 859 860 860 860 860 861 860 859 856 854 854 852 851 849 847 845 842 840 838 837 834
824 857 861 880 871 860 865 859 855 870 886 890 892 883 879 873 867 863 864 859 857 859 860 860 860 859 859 858 857 857 856 855 853 851 850 848 847 845 843 841 839 837 836 834
841 867 859 860 855 858 864 866 866 874 877 890 891 890 886 881 873 869 864 862 861 861 860 857 857 856 856 856 855 854 852 851 850 849 847 845 844 842 841 840 838 837 835 833
845 867 860 871 857 860 872 871 873 876 878 884 884 891 887 878 875 873 873 870 866 864 858 854 852 853 852 852 851 851 850 848 847 846 844 843 841 840 838 838 836 835 833 833
851 864 871 877 864 865 893 887 884 892 892 890 899 892 886 883 882 880 875 872 869 869 867 858 850 846 847 847 847 846 845 844 843 842 842 841 839 838 836 834 834 833 832 831
853 863 874 884 877 908 892 882 884 892 894 892 887 885 883 886 884 884 879 875 872 870 864 860 855 852 850 845 844 843 841 840 839 838 838 837 837 835 835 833 832 831 831 830
844 862 875 886 896 885 885 880 887 887 898 889 888 886 883 880 882 882 879 876 873 868 865 861 856 851 847 843 845 841 839 836 836 834 834 834 834 833 832 831 830 829 829 828
850 852 869 882 895 897 893 882 872 878 904 893 890 892 890 887 895 892 880 877 873 868 864 858 853 847 843 840 837 837 836 833 832 831 830 830 830 830 830 829 828 827 826 825
875 873 881 888 889 895 888 881 874 902 911 894 891 890 890 892 890 883 879 876 872 867 862 858 853 847 842 836 832 830 828 828 827 827 827 827 827 827 826 825 825 824 823 822
882 885 894 890 896 901 885 884 898 901 894 892 891 889 889 886 884 880 876 873 869 865 860 856 852 847 842 835 830 827 824 822 822 822 822 823 822 822 821 821 821 821 820 819
888 883 893 893 900 891 887 890 889 891 891 889 888 885 883 882 880 879 877 873 868 864 860 855 851 845 840 835 829 824 819 817 817 817 816 816 817 816 816 817 816 816 816 815
877 877 893 893 889 889 888 886 887 886 886 886 884 883 882 881 879 877 874 871 867 863 858 854 849 844 839 834 829 823 817 815 814 813 813 811 811 811 811 812 812 811 812 811
883 880 890 892 887 887 886 885 885 885 884 883 881 880 878 876 875 873 870 867 863 860 856 853 849 844 839 835 830 825 821 816 812 808 810 808 807 807 807 807 806 806 806 807
884 886 894 899 888 890 890 883 883 882 880 879 878 877 874 874 871 868 865 862 860 855 853 851 847 843 839 834 830 826 822 818 815 809 809 809 806 803 802 801 800 801 800 801
Wind_Speed
4 7 4 7 7 6 6 4 6 7 2 10 7 7 5 1 7 13 5 14 7 2 8 21 20 16 10 6 2 2 2 6 9 10 12 14 15 13 8 9 13 13 14 14
5 4 1 9 10 8 5 3 1 11 14 12 8 6 6 11 8 16 16 14 10 6 7 12 17 17 13 10 6 5 1 5 8 8 9 12 13 10 10 12 12 11 13 13
5 2 4 6 4 6 5 3 2 4 13 19 7 9 4 8 10 8 11 11 7 7 6 8 15 15 15 10 10 6 3 3 5 6 9 12 11 12 12 13 14 13 13 11
1 3 4 4 4 2 3 4 5 18 7 4 2 4 5 5 6 7 7 4 5 8 10 12 12 13 16 13 11 7 2 2 5 7 11 12 11 13 12 14 13 11 12 10
3 3 4 2 4 4 6 3 6 18 11 5 7 5 3 4 3 9 10 6 5 6 5 9 9 13 7 12 13 5 2 3 5 7 8 10 10 11 10 10 11 9 10 10
4 1 3 2 5 3 3 3 13 6 5 5 6 2 3 2 6 4 6 7 6 9 7 11 10 9 13 14 11 5 2 3 4 8 7 8 7 9 9 9 11 10 11 11
3 4 2 3 7 6 11 6 3 4 5 2 7 4 4 5 3 5 7 8 8 5 8 9 9 14 13 15 10 7 3 2 4 7 8 8 8 7 7 8 9 13 12 11
3 7 6 6 1 2 4 3 5 1 4 2 6 3 5 2 6 6 6 3 8 7 3 3 14 10 13 16 10 8 1 3 5 6 9 9 8 7 6 8 8 8 9 9
3 5 5 13 16 5 6 4 1 7 4 4 2 3 7 5 3 4 4 7 8 4 7 10 14 9 16 14 8 6 1 4 4 6 9 9 10 7 7 8 7 7 9 8
2 4 9 5 7 9 5 4 5 4 4 3 2 2 3 6 4 5 6 6 6 8 6 7 11 12 11 11 10 7 5 4 4 6 4 9 8 8 4 5 6 5 8 5
3 4 6 9 6 5 6 5 5 5 4 4 4 2 5 3 0 4 2 6 9 7 8 7 13 13 13 11 9 8 5 4 4 4 6 8 8 6 4 5 5 8 6 6
3 5 5 11 5 5 2 4 4 4 1 3 4 1 3 0 5 6 2 6 5 9 7 10 17 15 16 14 13 8 5 3 6 4 4 4 3 3 3 3 3 8 5 5
3 2 4 5 6 8 7 10 5 5 3 3 4 0 4 4 4 3 2 4 5 5 7 7 10 13 18 14 11 6 6 4 5 5 5 4 3 5 8 3 1 4 6 10
9 5 5 4 5 2 6 12 13 7 6 4 3 3 7 6 2 2 6 4 3 3 3 5 9 14 20 15 12 9 7 5 5 7 7 9 7 6 8 6 4 4 5 4
6 5 8 5 4 10 7 11 14 12 5 6 5 7 6 9 4 3 2 5 6 6 2 2 5 13 19 14 13 11 8 8 7 11 9 9 10 8 8 6 6 4 4 3
5 2 3 5 10 14 9 11 12 11 8 7 5 7 6 8 6 13 13 12 12 8 3 4 8 14 17 18 15 12 11 7 7 9 11 11 9 7 9 8 5 4 5 4
4 4 3 1 2 3 9 8 11 10 11 3 6 3 5 14 11 7 9 9 11 11 16 9 5 15 20 20 17 16 12 8 9 10 11 10 8 8 7 7 8 7 4 3
5 3 3 2 3 4 6 12 17 15 7 5 6 8 7 2 3 3 6 5 8 10 10 16 13 10 14 16 17 16 12 10 11 11 11 11 11 12 9 4 2 4 7 4
4 4 3 3 2 3 6 8 7 2 9 9 9 9 9 9 6 5 10 7 6 8 15 12 16 12 12 15 19 17 14 11 12 14 12 13 13 10 7 8 7 5 7 7
7 6 5 3 4 2 2 12 16 4 4 6 6 6 6 7 5 4 8 12 14 21 20 18 19 18 20 23 23 22 21 15 14 15 13 11 11 12 12 10 6 10 7 9
4 4 4 2 3 3 7 11 4 6 4 5 5 4 4 3 3 5 10 10 14 17 20 20 22 22 24 20 13 16 22 23 21 15 15 13 11 16 17 15 13 9 11 11
2 2 2 3 3 3 5 3 5 4 3 2 3 1 1 2 5 5 7 10 13 15 19 21 22 26 28 26 16 17 22 24 22 18 18 18 15 16 13 14 13 14 11 13
3 1 4 2 4 3 2 6 4 4 3 2 2 3 3 4 3 5 5 10 15 19 21 20 20 24 26 28 21 20 21 17 17 20 24 20 19 16 15 14 18 16 15 15
3 2 4 3 0 5 4 3 5 5 3 3 3 3 5 4 5 4 6 10 14 17 18 18 19 20 22 25 25 22 16 18 18 22 24 23 18 17 16 17 19 18 19 17
2 3 4 3 2 2 2 2 4 3 4 2 2 2 3 2 2 2 6 9 14 16 17 19 19 18 19 18 22 19 20 17 11 10 19 19 17 18 18 18 22 23 22 19
1 3 3 3 5 5 4 3 6 4 5 6 4 6 11 6 5 8 9 11 13 15 14 17 17 18 20 17 18 21 19 15 15 7 14 17 19 16 14 14 16 18 19 18
Wind_Direction
8 78 86 175 164 264 185 213 221 75 11 59 110 167 208 302 264 222 200 100 166 223 153 162 160 145 156 168 171 283 10 9 358 2 3 2 0 358 351 345 4 355 353 352
15 160 172 97 143 150 198 184 327 87 110 85 113 99 32 45 46 97 106 164 174 171 178 164 166 166 177 184 216 169 46 21 0 355 353 348 347 347 346 355 350 348 350 350
170 37 158 144 137 131 224 170 146 143 95 130 93 56 31 78 97 120 156 159 175 169 172 193 184 182 186 207 201 172 145 12 7 355 343 346 348 350 346 351 344 344 344 347
86 276 106 62 64 79 330 250 253 130 117 172 198 142 29 109 122 151 188 197 217 194 183 214 208 182 196 212 198 167 187 8 24 354 355 350 348 334 335 333 333 334 334 339
250 13 355 346 176 205 238 221 93 109 109 103 7 82 212 183 190 202 231 227 238 227 233 210 195 195 205 183 189 192 206 18 5 1 356 341 346 330 330 331 331 330 343 343
181 344 53 261 250 183 260 42 101 95 98 56 304 115 308 5 293 201 218 239 240 220 201 168 213 150 162 178 186 166 147 358 13 8 351 344 325 331 337 333 334 339 351 351
343 343 301 5 3 24 49 52 2 2 36 86 325 42 250 304 328 267 219 223 221 170 160 181 166 161 173 182 175 178 208 28 6 7 337 310 292 320 338 343 334 336 339 344
65 8 4 337 16 238 47 140 148 218 145 150 351 14 283 278 320 26 73 153 140 176 195 202 170 170 181 181 175 191 326 328 318 325 329 308 302 307 340 337 340 352 342 343
52 49 36 66 47 41 327 19 50 102 57 87 311 345 303 286 270 117 140 150 184 183 188 172 177 177 177 176 175 201 295 274 309 341 334 336 332 319 306 331 339 330 342 337
310 128 5 67 33 10 57 286 23 15 113 116 144 320 281 330 301 197 214 221 203 209 192 197 181 167 173 187 194 197 236 262 318 335 340 350 357 1 336 337 345 351 349 332
33 83 345 49 22 17 353 16 51 108 96 136 152 287 236 125 81 110 238 207 207 208 196 188 182 186 195 193 203 207 244 259 337 342 346 357 10 33 33 22 14 14 28 3
13 99 83 106 43 20 353 346 109 110 119 92 124 276 22 220 124 116 175 213 211 203 180 184 183 187 188 193 197 216 240 249 309 309 338 360 24 15 330 45 49 42 33 24
353 63 102 299 1 349 35 32 41 89 77 12 101 110 2 79 59 357 356 315 201 186 207 218 202 199 192 194 195 235 241 251 281 316 327 303 303 304 303 254 328 347 2 5
77 27 121 138 184 218 50 51 53 88 78 75 109 119 358 347 140 31 43 16 97 168 229 224 208 211 200 200 198 221 234 260 287 296 299 303 293 309 286 288 302 350 344 356
96 85 109 121 101 69 82 70 62 81 144 90 79 79 341 327 42 19 51 50 45 61 56 164 202 206 205 203 208 224 225 235 271 290 291 309 295 293 297 295 291 295 321 330
20 149 70 52 80 75 61 80 61 51 51 71 86 68 345 352 6 39 29 19 11 344 262 183 191 208 210 213 221 226 243 257 269 296 300 313 318 280 300 271 305 269 319 287
93 130 87 266 15 62 32 357 90 76 39 18 43 318 3 16 1 32 28 15 1 360 332 290 208 205 212 218 217 224 232 252 264 284 296 304 307 291 305 275 265 252 293 306
114 86 88 154 40 57 124 98 99 81 48 32 40 13 27 278 287 33 16 17 353 329 347 334 337 340 281 233 224 236 240 257 262 271 288 296 298 282 294 278 317 265 256 275
89 114 83 109 95 125 5 4 323 350 50 17 24 11 12 357 33 12 355 356 327 334 323 341 348 332 317 280 269 254 254 259 262 268 275 286 299 260 272 282 281 317 267 263
47 57 107 101 113 239 326 326 323 132 69 357 25 35 41 36 39 296 332 351 349 359 354 350 338 337 337 315 282 266 262 264 265 271 272 281 293 282 274 289 287 280 291 272
359 17 85 107 112 95 314 321 337 63 291 332 11 84 71 62 213 272 313 342 358 352 350 346 349 352 346 334 302 234 260 263 273 276 276 269 263 265 272 273 288 271 272 288
86 72 23 59 82 186 311 28 82 207 303 349 39 114 176 219 289 302 306 325 329 338 352 352 344 346 351 350 328 276 270 277 272 278 275 268 264 264 278 259 270 278 281 281
33 144 143 120 175 196 334 121 142 146 168 287 243 241 221 286 270 297 311 338 342 341 342 355 357 356 358 358 339 305 294 286 282 284 277 267 268 262 264 261 271 275 279 290
55 119 109 87 80 147 169 153 159 178 201 326 313 295 357 316 320 323 330 336 342 342 350 351 353 357 359 3 11 15 345 305 297 291 295 283 269 263 265 273 276 268 270 274
236 57 129 94 165 49 260 198 188 156 129 126 342 257 244 218 292 273 295 312 334 331 338 346 350 348 352 357 7 4 10 17 8 3 352 339 292 279 271 259 272 279 265 266
356 168 133 194 185 163 250 178 181 184 229 235 243 283 294 255 249 272 300 313 318 313 335 339 340 342 346 348 357 2 4 359 354 352 315 336 348 339 304 286 293 296 276 273